Time,TemperatureF,DewpointF,PressureIn,WindDirection,WindDirectionDegrees,WindSpeedMPH,WindSpeedGustMPH,Humidity,HourlyPrecipIn,Conditions,Clouds,dailyrainin,SoftwareType,DateUTC
2013-04-21 00:04:00,53.9,46.2,30.06,SE,141,11.0,12.0,75,0.00,,,0.00,Wunderground v.1.15,2013-04-21 05:04:00,
2013-04-21 00:10:00,53.6,46.2,30.06,SE,124,11.0,11.0,76,0.00,,,0.00,Wunderground v.1.15,2013-04-21 05:10:00,
2013-04-21 00:16:00,53.5,46.5,30.06,SE,125,11.0,13.0,77,0.00,,,0.00,Wunderground v.1.15,2013-04-21 05:16:00,
2013-04-21 00:22:00,53.3,46.6,30.06,SSE,150,11.0,11.0,78,0.00,,,0.00,Wunderground v.1.15,2013-04-21 05:22:00,
2013-04-21 00:28:00,53.2,46.5,30.07,SE,139,11.0,14.0,78,0.00,,,0.00,Wunderground v.1.15,2013-04-21 05:28:00,
2013-04-21 00:34:00,52.9,46.6,30.06,South,172,10.0,12.0,79,0.00,,,0.00,Wunderground v.1.15,2013-04-21 05:34:00,
2013-04-21 00:40:00,52.8,46.8,30.07,SSE,153,11.0,12.0,80,0.00,,,0.00,Wunderground v.1.15,2013-04-21 05:40:00,
2013-04-21 00:46:00,52.6,46.6,30.06,SE,131,11.0,15.0,80,0.00,,,0.00,Wunderground v.1.15,2013-04-21 05:46:00,
2013-04-21 00:52:00,52.5,46.8,30.07,SSE,167,12.0,18.0,81,0.00,,,0.00,Wunderground v.1.15,2013-04-21 05:52:00,
2013-04-21 00:58:00,52.3,47.0,30.07,South,179,12.0,18.0,82,0.00,,,0.00,Wunderground v.1.15,2013-04-21 05:58:00,
2013-04-21 01:04:00,52.2,47.2,30.07,SE,131,11.0,17.0,83,0.00,,,0.00,Wunderground v.1.15,2013-04-21 06:04:00,
2013-04-21 01:10:00,52.0,47.0,30.07,SE,144,11.0,11.0,83,0.00,,,0.00,Wunderground v.1.15,2013-04-21 06:10:00,
2013-04-21 01:16:00,51.8,47.1,30.07,SE,132,10.0,13.0,84,0.00,,,0.00,Wunderground v.1.15,2013-04-21 06:16:00,
2013-04-21 01:22:00,51.6,46.9,30.07,SE,143,10.0,13.0,84,0.00,,,0.00,Wunderground v.1.15,2013-04-21 06:22:00,
2013-04-21 01:28:00,51.5,47.1,30.07,SSE,166,11.0,13.0,85,0.00,,,0.00,Wunderground v.1.15,2013-04-21 06:28:00,
2013-04-21 01:34:00,51.4,47.0,30.07,SSE,158,11.0,13.0,85,0.00,,,0.00,Wunderground v.1.15,2013-04-21 06:34:00,
2013-04-21 01:40:00,51.2,46.8,30.07,SSE,153,9.0,11.0,85,0.00,,,0.00,Wunderground v.1.15,2013-04-21 06:40:00,
2013-04-21 01:46:00,51.1,47.1,30.07,SE,131,9.0,11.0,86,0.00,,,0.00,Wunderground v.1.15,2013-04-21 06:46:00,
2013-04-21 01:52:00,51.3,47.3,30.08,ESE,122,9.0,11.0,86,0.00,,,0.00,Wunderground v.1.15,2013-04-21 06:52:00,
2013-04-21 01:58:00,51.4,47.0,30.07,ESE,122,9.0,14.0,85,0.00,,,0.00,Wunderground v.1.15,2013-04-21 06:58:00,
2013-04-21 02:04:00,51.4,47.0,30.08,SE,141,10.0,10.0,85,0.00,,,0.00,Wunderground v.1.15,2013-04-21 07:04:00,
2013-04-21 02:10:00,51.5,47.1,30.08,SE,142,9.0,9.0,85,0.00,,,0.00,Wunderground v.1.15,2013-04-21 07:10:00,
2013-04-21 02:16:00,51.6,47.2,30.08,SSE,162,8.0,10.0,85,0.00,,,0.00,Wunderground v.1.15,2013-04-21 07:16:00,
2013-04-21 02:22:00,51.7,47.3,30.08,SE,126,7.0,8.0,85,0.00,,,0.00,Wunderground v.1.15,2013-04-21 07:22:00,
2013-04-21 02:28:00,51.8,47.4,30.08,SE,124,7.0,9.0,85,0.00,,,0.00,Wunderground v.1.15,2013-04-21 07:28:00,
2013-04-21 02:34:00,51.8,47.4,30.08,SSE,166,6.0,8.0,85,0.00,,,0.00,Wunderground v.1.15,2013-04-21 07:34:00,
2013-04-21 02:40:00,51.8,47.1,30.07,SE,136,7.0,7.0,84,0.00,,,0.00,Wunderground v.1.15,2013-04-21 07:40:00,
2013-04-21 02:46:00,51.9,47.2,30.08,SSE,163,8.0,8.0,84,0.00,,,0.00,Wunderground v.1.15,2013-04-21 07:46:00,
2013-04-21 02:52:00,51.9,47.2,30.08,SE,142,8.0,11.0,84,0.00,,,0.00,Wunderground v.1.15,2013-04-21 07:52:00,
2013-04-21 02:58:00,51.8,47.4,30.08,SSE,153,7.0,11.0,85,0.00,,,0.00,Wunderground v.1.15,2013-04-21 07:58:00,
2013-04-21 03:04:00,51.8,47.4,30.08,SE,125,6.0,11.0,85,0.00,,,0.00,Wunderground v.1.15,2013-04-21 08:04:00,
2013-04-21 03:10:00,51.8,47.4,30.07,SE,136,5.0,8.0,85,0.00,,,0.00,Wunderground v.1.15,2013-04-21 08:10:00,
2013-04-21 03:16:00,51.6,47.2,30.08,ESE,120,5.0,8.0,85,0.00,,,0.00,Wunderground v.1.15,2013-04-21 08:16:00,
2013-04-21 03:22:00,51.4,47.0,30.08,ESE,111,5.0,8.0,85,0.00,,,0.00,Wunderground v.1.15,2013-04-21 08:22:00,
2013-04-21 03:28:00,51.3,47.3,30.08,ESE,113,5.0,8.0,86,0.00,,,0.00,Wunderground v.1.15,2013-04-21 08:28:00,
2013-04-21 03:34:00,51.2,47.2,30.08,SE,143,5.0,9.0,86,0.00,,,0.00,Wunderground v.1.15,2013-04-21 08:34:00,
2013-04-21 03:40:00,51.0,47.0,30.08,SE,127,5.0,8.0,86,0.00,,,0.00,Wunderground v.1.15,2013-04-21 08:40:00,
2013-04-21 03:46:00,50.8,46.8,30.08,SE,143,5.0,8.0,86,0.00,,,0.00,Wunderground v.1.15,2013-04-21 08:46:00,
2013-04-21 03:52:00,50.6,46.9,30.07,South,172,5.0,8.0,87,0.00,,,0.00,Wunderground v.1.15,2013-04-21 08:52:00,
2013-04-21 03:58:00,50.4,46.7,30.07,SE,125,5.0,8.0,87,0.00,,,0.00,Wunderground v.1.15,2013-04-21 08:58:00,
2013-04-21 04:04:00,50.3,46.6,30.07,SE,134,5.0,8.0,87,0.00,,,0.00,Wunderground v.1.15,2013-04-21 09:04:00,
2013-04-21 04:10:00,50.2,46.8,30.07,SSE,148,5.0,5.0,88,0.00,,,0.00,Wunderground v.1.15,2013-04-21 09:10:00,
2013-04-21 04:16:00,50.2,46.8,30.08,SE,144,5.0,8.0,88,0.00,,,0.00,Wunderground v.1.15,2013-04-21 09:16:00,
2013-04-21 04:22:00,50.2,46.8,30.07,SE,145,5.0,6.0,88,0.00,,,0.00,Wunderground v.1.15,2013-04-21 09:22:00,
2013-04-21 04:28:00,50.2,46.8,30.07,SE,134,5.0,8.0,88,0.00,,,0.00,Wunderground v.1.15,2013-04-21 09:28:00,
2013-04-21 04:34:00,50.1,46.7,30.07,SE,136,5.0,8.0,88,0.00,,,0.00,Wunderground v.1.15,2013-04-21 09:34:00,
2013-04-21 04:40:00,50.1,47.0,30.07,SE,139,6.0,8.0,89,0.00,,,0.00,Wunderground v.1.15,2013-04-21 09:40:00,
2013-04-21 04:46:00,50.2,47.1,30.07,SE,136,6.0,8.0,89,0.00,,,0.00,Wunderground v.1.15,2013-04-21 09:46:00,
2013-04-21 04:52:00,50.2,47.1,30.08,ESE,113,5.0,6.0,89,0.00,,,0.00,Wunderground v.1.15,2013-04-21 09:52:00,
2013-04-21 04:58:00,50.2,47.1,30.08,ESE,108,4.0,8.0,89,0.00,,,0.00,Wunderground v.1.15,2013-04-21 09:58:00,
2013-04-21 05:04:00,50.3,47.2,30.08,ESE,122,4.0,8.0,89,0.00,,,0.00,Wunderground v.1.15,2013-04-21 10:04:00,
2013-04-21 05:10:00,50.3,47.2,30.08,ESE,118,4.0,8.0,89,0.00,,,0.00,Wunderground v.1.15,2013-04-21 10:10:00,
2013-04-21 05:16:00,50.3,47.2,30.07,SSE,150,4.0,8.0,89,0.00,,,0.00,Wunderground v.1.15,2013-04-21 10:16:00,
2013-04-21 05:22:00,50.4,47.3,30.07,SSE,162,4.0,5.0,89,0.00,,,0.00,Wunderground v.1.15,2013-04-21 10:22:00,
2013-04-21 05:28:00,50.4,47.6,30.08,ESE,110,4.0,9.0,90,0.00,,,0.00,Wunderground v.1.15,2013-04-21 10:28:00,
2013-04-21 05:34:00,50.5,47.7,30.07,SE,129,7.0,9.0,90,0.00,,,0.00,Wunderground v.1.15,2013-04-21 10:34:00,
2013-04-21 05:40:00,50.6,47.8,30.07,SSE,166,7.0,7.0,90,0.00,,,0.00,Wunderground v.1.15,2013-04-21 10:40:00,
2013-04-21 05:46:00,50.6,47.8,30.08,SE,125,6.0,8.0,90,0.00,,,0.00,Wunderground v.1.15,2013-04-21 10:46:00,
2013-04-21 05:52:00,50.7,47.9,30.07,SE,126,5.0,8.0,90,0.00,,,0.00,Wunderground v.1.15,2013-04-21 10:52:00,
2013-04-21 05:58:00,50.7,47.9,30.07,SE,141,6.0,10.0,90,0.00,,,0.00,Wunderground v.1.15,2013-04-21 10:58:00,
2013-04-21 06:04:00,50.8,48.0,30.07,SE,128,7.0,8.0,90,0.00,,,0.00,Wunderground v.1.15,2013-04-21 11:04:00,
2013-04-21 06:10:00,50.8,48.0,30.07,SE,138,6.0,6.0,90,0.00,,,0.00,Wunderground v.1.15,2013-04-21 11:10:00,
2013-04-21 06:16:00,50.9,48.1,30.08,SSE,162,5.0,8.0,90,0.00,,,0.00,Wunderground v.1.15,2013-04-21 11:16:00,
2013-04-21 06:22:00,50.9,48.1,30.08,SE,144,6.0,6.0,90,0.00,,,0.00,Wunderground v.1.15,2013-04-21 11:22:00,
2013-04-21 06:28:00,51.0,48.2,30.08,SE,131,6.0,10.0,90,0.00,,,0.00,Wunderground v.1.15,2013-04-21 11:28:00,
2013-04-21 06:34:00,51.0,48.2,30.08,SE,142,6.0,8.0,90,0.00,,,0.00,Wunderground v.1.15,2013-04-21 11:34:00,
2013-04-21 06:40:00,51.1,48.3,30.08,SE,142,6.0,6.0,90,0.00,,,0.00,Wunderground v.1.15,2013-04-21 11:40:00,
2013-04-21 06:46:00,51.1,48.3,30.08,SSE,167,7.0,11.0,90,0.00,,,0.00,Wunderground v.1.15,2013-04-21 11:46:00,
2013-04-21 06:52:00,51.2,48.4,30.08,SE,143,7.0,8.0,90,0.00,,,0.00,Wunderground v.1.15,2013-04-21 11:52:00,
2013-04-21 06:58:00,51.2,48.4,30.08,SSW,212,7.0,11.0,90,0.00,,,0.00,Wunderground v.1.15,2013-04-21 11:58:00,
2013-04-21 07:04:00,51.3,48.5,30.08,ESE,120,7.0,10.0,90,0.00,,,0.00,Wunderground v.1.15,2013-04-21 12:04:00,
2013-04-21 07:10:00,51.4,48.6,30.09,SSE,158,8.0,8.0,90,0.00,,,0.00,Wunderground v.1.15,2013-04-21 12:10:00,
2013-04-21 07:16:00,51.5,48.7,30.09,SSE,156,7.0,11.0,90,0.00,,,0.00,Wunderground v.1.15,2013-04-21 12:16:00,
2013-04-21 07:22:00,51.6,48.8,30.08,SE,142,7.0,11.0,90,0.00,,,0.00,Wunderground v.1.15,2013-04-21 12:22:00,
2013-04-21 07:28:00,51.7,48.9,30.09,SE,139,8.0,11.0,90,0.00,,,0.00,Wunderground v.1.15,2013-04-21 12:28:00,
2013-04-21 07:34:00,51.8,48.7,30.09,SE,145,8.0,11.0,89,0.00,,,0.00,Wunderground v.1.15,2013-04-21 12:34:00,
2013-04-21 07:40:00,52.0,48.9,30.09,SSE,154,8.0,11.0,89,0.00,,,0.00,Wunderground v.1.15,2013-04-21 12:40:00,
2013-04-21 07:46:00,52.0,48.9,30.10,SSE,158,8.0,11.0,89,0.00,,,0.00,Wunderground v.1.15,2013-04-21 12:46:00,
2013-04-21 07:52:00,52.1,49.0,30.10,ESE,123,8.0,11.0,89,0.00,,,0.00,Wunderground v.1.15,2013-04-21 12:52:00,
2013-04-21 07:58:00,52.3,49.2,30.10,South,172,8.0,11.0,89,0.00,,,0.00,Wunderground v.1.15,2013-04-21 12:58:00,
2013-04-21 08:04:00,52.5,49.4,30.09,ESE,108,9.0,11.0,89,0.00,,,0.00,Wunderground v.1.15,2013-04-21 13:04:00,
2013-04-21 08:10:00,52.7,49.2,30.10,SSE,158,9.0,11.0,88,0.00,,,0.00,Wunderground v.1.15,2013-04-21 13:10:00,
2013-04-21 08:16:00,52.8,49.3,30.10,SSE,155,11.0,11.0,88,0.00,,,0.00,Wunderground v.1.15,2013-04-21 13:16:00,
2013-04-21 08:22:00,53.0,49.5,30.10,SSE,168,10.0,14.0,88,0.00,,,0.00,Wunderground v.1.15,2013-04-21 13:22:00,
2013-04-21 08:28:00,53.1,49.3,30.10,SE,141,10.0,15.0,87,0.00,,,0.00,Wunderground v.1.15,2013-04-21 13:28:00,
2013-04-21 08:34:00,53.2,49.7,30.10,SSE,155,10.0,11.0,88,0.00,,,0.00,Wunderground v.1.15,2013-04-21 13:34:00,
2013-04-21 08:40:00,53.6,49.8,30.11,South,177,9.0,9.0,87,0.00,,,0.00,Wunderground v.1.15,2013-04-21 13:40:00,
2013-04-21 08:46:00,53.9,50.1,30.11,SE,133,10.0,13.0,87,0.00,,,0.00,Wunderground v.1.15,2013-04-21 13:46:00,
2013-04-21 08:52:00,54.2,50.4,30.11,SSE,150,8.0,11.0,87,0.00,,,0.00,Wunderground v.1.15,2013-04-21 13:52:00,
2013-04-21 08:58:00,54.4,50.3,30.12,SSE,148,7.0,11.0,86,0.00,,,0.00,Wunderground v.1.15,2013-04-21 13:58:00,
2013-04-21 09:04:00,54.5,50.4,30.12,SSE,165,7.0,11.0,86,0.00,,,0.00,Wunderground v.1.15,2013-04-21 14:04:00,
2013-04-21 09:10:00,54.7,50.6,30.12,SSW,201,8.0,8.0,86,0.00,,,0.00,Wunderground v.1.15,2013-04-21 14:10:00,
2013-04-21 09:16:00,55.1,51.0,30.12,SSE,158,8.0,11.0,86,0.00,,,0.00,Wunderground v.1.15,2013-04-21 14:16:00,
2013-04-21 09:22:00,55.5,51.1,30.12,ESE,120,8.0,11.0,85,0.00,,,0.00,Wunderground v.1.15,2013-04-21 14:22:00,
2013-04-21 09:28:00,56.0,51.6,30.13,SE,145,8.0,11.0,85,0.00,,,0.00,Wunderground v.1.15,2013-04-21 14:28:00,
2013-04-21 09:34:00,56.3,51.5,30.13,SSE,149,9.0,11.0,84,0.00,,,0.00,Wunderground v.1.15,2013-04-21 14:34:00,
2013-04-21 09:40:00,56.5,51.7,30.13,ESE,117,8.0,11.0,84,0.00,,,0.00,Wunderground v.1.15,2013-04-21 14:40:00,
2013-04-21 09:46:00,56.9,51.8,30.14,SSE,163,8.0,11.0,83,0.00,,,0.00,Wunderground v.1.15,2013-04-21 14:46:00,
2013-04-21 09:52:00,56.8,51.7,30.14,SSE,165,7.0,11.0,83,0.00,,,0.00,Wunderground v.1.15,2013-04-21 14:52:00,
2013-04-21 09:58:00,57.1,52.0,30.14,SE,139,7.0,11.0,83,0.00,,,0.00,Wunderground v.1.15,2013-04-21 14:58:00,
2013-04-21 10:04:00,57.3,52.2,30.14,South,169,7.0,12.0,83,0.00,,,0.00,Wunderground v.1.15,2013-04-21 15:04:00,
2013-04-21 10:10:00,57.4,52.3,30.14,SE,126,7.0,11.0,83,0.00,,,0.00,Wunderground v.1.15,2013-04-21 15:10:00,
2013-04-21 10:16:00,57.6,52.5,30.14,SSE,148,7.0,11.0,83,0.00,,,0.00,Wunderground v.1.15,2013-04-21 15:16:00,
2013-04-21 10:22:00,58.3,52.8,30.14,SE,136,8.0,15.0,82,0.00,,,0.00,Wunderground v.1.15,2013-04-21 15:22:00,
2013-04-21 10:28:00,59.2,52.7,30.14,South,170,8.0,15.0,79,0.00,,,0.00,Wunderground v.1.15,2013-04-21 15:28:00,
2013-04-21 10:34:00,59.2,53.0,30.14,SSE,148,9.0,11.0,80,0.00,,,0.00,Wunderground v.1.15,2013-04-21 15:34:00,
2013-04-21 10:40:00,59.6,52.7,30.14,SE,125,8.0,11.0,78,0.00,,,0.00,Wunderground v.1.15,2013-04-21 15:40:00,
2013-04-21 10:48:00,59.2,52.3,30.14,SSE,164,9.0,14.0,78,0.00,,,0.00,Wunderground v.1.15,2013-04-21 15:48:00,
2013-04-21 10:54:00,59.2,52.7,30.15,SE,126,9.0,11.0,79,0.00,,,0.00,Wunderground v.1.15,2013-04-21 15:54:00,
2013-04-21 11:00:00,59.8,52.9,30.15,SSE,153,8.0,16.0,78,0.00,,,0.00,Wunderground v.1.15,2013-04-21 16:00:00,
2013-04-21 11:06:00,60.5,53.3,30.14,SE,135,8.0,16.0,77,0.00,,,0.00,Wunderground v.1.15,2013-04-21 16:06:00,
2013-04-21 11:12:00,60.4,52.8,30.15,South,181,8.0,15.0,76,0.00,,,0.00,Wunderground v.1.15,2013-04-21 16:12:00,
2013-04-21 11:18:00,60.1,52.9,30.15,SSE,151,8.0,15.0,77,0.00,,,0.00,Wunderground v.1.15,2013-04-21 16:18:00,
2013-04-21 11:24:00,60.2,52.2,30.15,South,184,7.0,12.0,75,0.00,,,0.00,Wunderground v.1.15,2013-04-21 16:24:00,
2013-04-21 11:30:00,60.7,52.4,30.15,South,176,7.0,11.0,74,0.00,,,0.00,Wunderground v.1.15,2013-04-21 16:30:00,
2013-04-21 11:36:00,60.9,52.2,30.15,SSW,205,8.0,16.0,73,0.00,,,0.00,Wunderground v.1.15,2013-04-21 16:36:00,
2013-04-21 11:42:00,61.6,53.2,30.15,SE,144,8.0,11.0,74,0.00,,,0.00,Wunderground v.1.15,2013-04-21 16:42:00,
2013-04-21 11:48:00,62.3,52.4,30.15,SE,129,8.0,11.0,70,0.00,,,0.00,Wunderground v.1.15,2013-04-21 16:48:00,
2013-04-21 11:54:00,62.6,53.1,30.15,SSE,154,8.0,11.0,71,0.00,,,0.00,Wunderground v.1.15,2013-04-21 16:54:00,
2013-04-21 12:00:00,63.0,52.7,30.15,SE,141,7.0,7.0,69,0.00,,,0.00,Wunderground v.1.15,2013-04-21 17:00:00,
2013-04-21 12:06:00,63.4,52.7,30.14,SSE,150,8.0,13.0,68,0.00,,,0.00,Wunderground v.1.15,2013-04-21 17:06:00,
2013-04-21 12:12:00,64.1,52.9,30.14,SSE,151,8.0,11.0,67,0.00,,,0.00,Wunderground v.1.15,2013-04-21 17:12:00,
2013-04-21 12:18:00,64.8,53.2,30.14,SSW,198,8.0,11.0,66,0.00,,,0.00,Wunderground v.1.15,2013-04-21 17:18:00,
2013-04-21 12:24:00,65.6,52.7,30.14,South,177,9.0,11.0,63,0.00,,,0.00,Wunderground v.1.15,2013-04-21 17:24:00,
2013-04-21 12:30:00,66.4,52.5,30.13,SSE,159,10.0,10.0,61,0.00,,,0.00,Wunderground v.1.15,2013-04-21 17:30:00,
2013-04-21 12:36:00,66.6,52.7,30.13,SSW,201,9.0,15.0,61,0.00,,,0.00,Wunderground v.1.15,2013-04-21 17:36:00,
2013-04-21 12:42:00,67.4,53.0,30.12,SSE,167,9.0,11.0,60,0.00,,,0.00,Wunderground v.1.15,2013-04-21 17:42:00,
2013-04-21 12:48:00,67.3,52.5,30.12,SW,224,10.0,11.0,59,0.00,,,0.00,Wunderground v.1.15,2013-04-21 17:48:00,
2013-04-21 12:54:00,67.6,52.3,30.12,SSE,152,9.0,11.0,58,0.00,,,0.00,Wunderground v.1.15,2013-04-21 17:54:00,
2013-04-21 13:00:00,67.9,52.6,30.11,SSW,192,9.0,9.0,58,0.00,,,0.00,Wunderground v.1.15,2013-04-21 18:00:00,
2013-04-21 13:06:00,68.0,52.7,30.11,SE,141,8.0,11.0,58,0.00,,,0.00,Wunderground v.1.15,2013-04-21 18:06:00,
2013-04-21 13:12:00,67.9,53.0,30.11,SE,129,9.0,9.0,59,0.00,,,0.00,Wunderground v.1.15,2013-04-21 18:12:00,
2013-04-21 13:18:00,68.4,53.5,30.11,South,174,7.0,12.0,59,0.00,,,0.00,Wunderground v.1.15,2013-04-21 18:18:00,
2013-04-21 13:24:00,68.5,52.7,30.10,ESE,117,7.0,11.0,57,0.00,,,0.00,Wunderground v.1.15,2013-04-21 18:24:00,
2013-04-21 13:30:00,68.6,52.8,30.10,WSW,243,8.0,11.0,57,0.00,,,0.00,Wunderground v.1.15,2013-04-21 18:30:00,
2013-04-21 13:36:00,68.9,53.0,30.10,South,186,8.0,15.0,57,0.00,,,0.00,Wunderground v.1.15,2013-04-21 18:36:00,
2013-04-21 13:42:00,70.3,54.3,30.10,South,172,7.0,9.0,57,0.00,,,0.00,Wunderground v.1.15,2013-04-21 18:42:00,
2013-04-21 13:48:00,69.5,53.6,30.09,SSE,167,9.0,11.0,57,0.00,,,0.00,Wunderground v.1.15,2013-04-21 18:48:00,
2013-04-21 13:54:00,69.9,54.0,30.09,ESE,110,9.0,11.0,57,0.00,,,0.00,Wunderground v.1.15,2013-04-21 18:54:00,
2013-04-21 14:00:00,69.9,53.5,30.09,SSW,201,8.0,8.0,56,0.00,,,0.00,Wunderground v.1.15,2013-04-21 19:00:00,
2013-04-21 14:06:00,70.1,54.2,30.09,SSE,158,6.0,13.0,57,0.00,,,0.00,Wunderground v.1.15,2013-04-21 19:06:00,
2013-04-21 14:12:00,70.9,53.4,30.08,South,184,8.0,11.0,54,0.00,,,0.00,Wunderground v.1.15,2013-04-21 19:12:00,
2013-04-21 14:18:00,71.6,54.6,30.08,SW,235,9.0,11.0,55,0.00,,,0.00,Wunderground v.1.15,2013-04-21 19:18:00,
2013-04-21 14:24:00,71.9,54.3,30.08,SSW,205,8.0,11.0,54,0.00,,,0.00,Wunderground v.1.15,2013-04-21 19:24:00,
2013-04-21 14:30:00,71.9,54.3,30.07,SW,225,9.0,17.0,54,0.00,,,0.00,Wunderground v.1.15,2013-04-21 19:30:00,
2013-04-21 14:36:00,72.0,53.9,30.07,SSW,193,9.0,17.0,53,0.00,,,0.00,Wunderground v.1.15,2013-04-21 19:36:00,
2013-04-21 14:42:00,71.1,53.6,30.07,SSW,201,9.0,14.0,54,0.00,,,0.00,Wunderground v.1.15,2013-04-21 19:42:00,
2013-04-21 14:48:00,71.1,54.1,30.06,SSE,150,10.0,14.0,55,0.00,,,0.00,Wunderground v.1.15,2013-04-21 19:48:00,
2013-04-21 14:54:00,71.8,54.8,30.06,SSE,150,8.0,13.0,55,0.00,,,0.00,Wunderground v.1.15,2013-04-21 19:54:00,
2013-04-21 15:00:00,71.9,54.3,30.06,South,188,9.0,9.0,54,0.00,,,0.00,Wunderground v.1.15,2013-04-21 20:00:00,
2013-04-21 15:06:00,72.1,54.5,30.06,South,174,9.0,13.0,54,0.00,,,0.00,Wunderground v.1.15,2013-04-21 20:06:00,
2013-04-21 15:12:00,72.2,54.1,30.06,South,179,9.0,13.0,53,0.00,,,0.00,Wunderground v.1.15,2013-04-21 20:12:00,
2013-04-21 15:18:00,72.5,53.9,30.05,South,170,9.0,13.0,52,0.00,,,0.00,Wunderground v.1.15,2013-04-21 20:18:00,
2013-04-21 15:24:00,72.6,54.5,30.05,ESE,105,8.0,13.0,53,0.00,,,0.00,Wunderground v.1.15,2013-04-21 20:24:00,
2013-04-21 15:30:00,72.9,54.2,30.04,SE,143,9.0,12.0,52,0.00,,,0.00,Wunderground v.1.15,2013-04-21 20:30:00,
2013-04-21 15:36:00,73.4,54.7,30.04,SSE,165,8.0,12.0,52,0.00,,,0.00,Wunderground v.1.15,2013-04-21 20:36:00,
2013-04-21 15:42:00,73.6,53.8,30.04,SE,145,8.0,16.0,50,0.00,,,0.00,Wunderground v.1.15,2013-04-21 20:42:00,
2013-04-21 15:48:00,73.5,54.3,30.03,South,170,10.0,16.0,51,0.00,,,0.00,Wunderground v.1.15,2013-04-21 20:48:00,
2013-04-21 15:54:00,73.9,54.1,30.03,SSW,204,9.0,16.0,50,0.00,,,0.00,Wunderground v.1.15,2013-04-21 20:54:00,
2013-04-21 16:00:00,73.6,53.8,30.03,SE,135,10.0,10.0,50,0.00,,,0.00,Wunderground v.1.15,2013-04-21 21:00:00,
2013-04-21 16:06:00,73.8,54.5,30.02,South,176,8.0,11.0,51,0.00,,,0.00,Wunderground v.1.15,2013-04-21 21:06:00,
2013-04-21 16:12:00,73.7,54.4,30.02,South,181,9.0,11.0,51,0.00,,,0.00,Wunderground v.1.15,2013-04-21 21:12:00,
2013-04-21 16:18:00,74.1,54.3,30.02,South,173,8.0,11.0,50,0.00,,,0.00,Wunderground v.1.15,2013-04-21 21:18:00,
2013-04-21 16:24:00,74.0,54.2,30.02,SSE,150,9.0,14.0,50,0.00,,,0.00,Wunderground v.1.15,2013-04-21 21:24:00,
2013-04-21 16:30:00,74.1,54.3,30.01,SE,146,10.0,10.0,50,0.00,,,0.00,Wunderground v.1.15,2013-04-21 21:30:00,
2013-04-21 16:36:00,74.4,54.0,30.02,South,181,9.0,11.0,49,0.00,,,0.00,Wunderground v.1.15,2013-04-21 21:36:00,
2013-04-21 16:42:00,74.5,53.5,30.01,SE,139,6.0,11.0,48,0.00,,,0.00,Wunderground v.1.15,2013-04-21 21:42:00,
2013-04-21 16:48:00,74.8,53.8,30.01,SSE,166,7.0,11.0,48,0.00,,,0.00,Wunderground v.1.15,2013-04-21 21:48:00,
2013-04-21 16:54:00,74.5,53.5,30.01,SSW,192,9.0,11.0,48,0.00,,,0.00,Wunderground v.1.15,2013-04-21 21:54:00,
2013-04-21 17:00:00,74.2,54.4,30.01,South,172,8.0,11.0,50,0.00,,,0.00,Wunderground v.1.15,2013-04-21 22:00:00,
2013-04-21 17:06:00,74.4,54.5,30.01,South,181,9.0,11.0,50,0.00,,,0.00,Wunderground v.1.15,2013-04-21 22:06:00,
2013-04-21 17:12:00,74.2,54.4,30.01,SSW,192,9.0,11.0,50,0.00,,,0.00,Wunderground v.1.15,2013-04-21 22:12:00,
2013-04-21 17:18:00,74.6,54.2,30.00,South,172,8.0,12.0,49,0.00,,,0.00,Wunderground v.1.15,2013-04-21 22:18:00,
2013-04-21 17:24:00,74.8,53.8,30.00,SSW,200,9.0,11.0,48,0.00,,,0.00,Wunderground v.1.15,2013-04-21 22:24:00,
2013-04-21 17:30:00,74.8,53.8,30.01,South,170,8.0,12.0,48,0.00,,,0.00,Wunderground v.1.15,2013-04-21 22:30:00,
2013-04-21 17:36:00,74.6,54.2,30.00,SSW,210,9.0,12.0,49,0.00,,,0.00,Wunderground v.1.15,2013-04-21 22:36:00,
2013-04-21 17:42:00,74.7,54.3,30.00,SSE,150,7.0,9.0,49,0.00,,,0.00,Wunderground v.1.15,2013-04-21 22:42:00,
2013-04-21 17:48:00,74.9,53.9,30.00,South,190,7.0,12.0,48,0.00,,,0.00,Wunderground v.1.15,2013-04-21 22:48:00,
2013-04-21 17:54:00,75.1,54.6,30.00,South,178,7.0,11.0,49,0.00,,,0.00,Wunderground v.1.15,2013-04-21 22:54:00,
2013-04-21 18:00:00,74.8,54.9,30.00,South,186,7.0,11.0,50,0.00,,,0.00,Wunderground v.1.15,2013-04-21 23:00:00,
2013-04-21 18:06:00,74.5,54.6,30.00,SSE,153,7.0,11.0,50,0.00,,,0.00,Wunderground v.1.15,2013-04-21 23:06:00,
2013-04-21 18:12:00,74.3,54.5,30.00,SE,134,6.0,11.0,50,0.00,,,0.00,Wunderground v.1.15,2013-04-21 23:12:00,
2013-04-21 18:18:00,74.4,54.5,30.00,SE,136,6.0,11.0,50,0.00,,,0.00,Wunderground v.1.15,2013-04-21 23:18:00,
2013-04-21 18:24:00,74.7,54.8,30.01,SE,133,6.0,11.0,50,0.00,,,0.00,Wunderground v.1.15,2013-04-21 23:24:00,
2013-04-21 18:30:00,74.8,54.9,30.01,ESE,109,7.0,11.0,50,0.00,,,0.00,Wunderground v.1.15,2013-04-21 23:30:00,
2013-04-21 18:36:00,74.4,54.5,30.01,SSE,159,8.0,11.0,50,0.00,,,0.00,Wunderground v.1.15,2013-04-21 23:36:00,
2013-04-21 18:42:00,74.5,54.6,30.01,SE,134,6.0,11.0,50,0.00,,,0.00,Wunderground v.1.15,2013-04-21 23:42:00,
2013-04-21 18:48:00,74.1,54.3,30.01,SE,137,7.0,11.0,50,0.00,,,0.00,Wunderground v.1.15,2013-04-21 23:48:00,
2013-04-21 18:54:00,74.0,54.2,30.01,SE,127,6.0,11.0,50,0.00,,,0.00,Wunderground v.1.15,2013-04-21 23:54:00,
2013-04-21 19:00:00,73.9,54.6,30.01,SSW,193,6.0,11.0,51,0.00,,,0.00,Wunderground v.1.15,2013-04-22 00:00:00,
2013-04-21 19:06:00,73.8,54.0,30.01,South,189,6.0,11.0,50,0.00,,,0.00,Wunderground v.1.15,2013-04-22 00:06:00,
2013-04-21 19:12:00,73.7,54.4,30.01,SE,134,6.0,11.0,51,0.00,,,0.00,Wunderground v.1.15,2013-04-22 00:12:00,
2013-04-21 19:18:00,73.3,54.1,30.01,South,189,6.0,11.0,51,0.00,,,0.00,Wunderground v.1.15,2013-04-22 00:18:00,
2013-04-21 19:24:00,73.1,54.4,30.01,SE,133,6.0,11.0,52,0.00,,,0.00,Wunderground v.1.15,2013-04-22 00:24:00,
2013-04-21 19:30:00,72.8,54.1,30.01,SSE,148,5.0,5.0,52,0.00,,,0.00,Wunderground v.1.15,2013-04-22 00:30:00,
2013-04-21 19:36:00,72.5,54.4,30.01,SSE,148,5.0,11.0,53,0.00,,,0.00,Wunderground v.1.15,2013-04-22 00:36:00,
2013-04-21 19:42:00,72.1,54.5,30.02,ESE,121,4.0,5.0,54,0.00,,,0.00,Wunderground v.1.15,2013-04-22 00:42:00,
2013-04-21 19:48:00,71.7,54.7,30.02,SE,128,4.0,11.0,55,0.00,,,0.00,Wunderground v.1.15,2013-04-22 00:48:00,
2013-04-21 19:54:00,71.2,54.7,30.02,ESE,121,4.0,11.0,56,0.00,,,0.00,Wunderground v.1.15,2013-04-22 00:54:00,
2013-04-21 20:00:00,70.7,54.2,30.02,SE,134,4.0,11.0,56,0.00,,,0.00,Wunderground v.1.15,2013-04-22 01:00:00,
2013-04-21 20:06:00,70.2,54.2,30.02,South,179,4.0,11.0,57,0.00,,,0.00,Wunderground v.1.15,2013-04-22 01:06:00,
2013-04-21 20:12:00,69.8,54.4,30.02,SE,134,4.0,11.0,58,0.00,,,0.00,Wunderground v.1.15,2013-04-22 01:12:00,
2013-04-21 20:18:00,69.4,54.0,30.02,SSE,160,3.0,11.0,58,0.00,,,0.00,Wunderground v.1.15,2013-04-22 01:18:00,
2013-04-21 20:24:00,69.1,54.2,30.02,SE,138,3.0,11.0,59,0.00,,,0.00,Wunderground v.1.15,2013-04-22 01:24:00,
2013-04-21 20:30:00,68.7,54.3,30.03,SE,138,3.0,11.0,60,0.00,,,0.00,Wunderground v.1.15,2013-04-22 01:30:00,
2013-04-21 20:36:00,68.5,54.1,30.03,SE,128,3.0,11.0,60,0.00,,,0.00,Wunderground v.1.15,2013-04-22 01:36:00,
2013-04-21 20:42:00,68.3,53.9,30.03,East,87,3.0,4.0,60,0.00,,,0.00,Wunderground v.1.15,2013-04-22 01:42:00,
2013-04-21 20:48:00,67.9,54.0,30.04,SE,141,3.0,11.0,61,0.00,,,0.00,Wunderground v.1.15,2013-04-22 01:48:00,
2013-04-21 20:54:00,67.5,54.5,30.04,ESE,115,3.0,11.0,63,0.00,,,0.00,Wunderground v.1.15,2013-04-22 01:54:00,
2013-04-21 21:00:00,67.2,54.2,30.04,SE,143,5.0,5.0,63,0.00,,,0.00,Wunderground v.1.15,2013-04-22 02:00:00,
2013-04-21 21:06:00,66.9,54.3,30.05,SE,131,5.0,11.0,64,0.00,,,0.00,Wunderground v.1.15,2013-04-22 02:06:00,
2013-04-21 21:12:00,66.5,53.9,30.05,SSE,148,4.0,11.0,64,0.00,,,0.00,Wunderground v.1.15,2013-04-22 02:12:00,
2013-04-21 21:18:00,66.3,54.6,30.05,SE,146,5.0,11.0,66,0.00,,,0.00,Wunderground v.1.15,2013-04-22 02:18:00,
2013-04-21 21:24:00,66.1,54.8,30.05,ESE,117,5.0,11.0,67,0.00,,,0.00,Wunderground v.1.15,2013-04-22 02:24:00,
2013-04-21 21:34:00,65.7,54.8,30.06,ESE,120,5.0,11.0,68,0.00,,,0.00,Wunderground v.1.15,2013-04-22 02:34:00,
2013-04-21 21:40:00,65.5,54.7,30.06,ESE,116,5.0,5.0,68,0.00,,,0.00,Wunderground v.1.15,2013-04-22 02:40:00,
2013-04-21 21:46:00,65.2,54.8,30.07,SE,138,5.0,11.0,69,0.00,,,0.00,Wunderground v.1.15,2013-04-22 02:46:00,
2013-04-21 21:52:00,65.0,55.0,30.07,SE,127,4.0,11.0,70,0.00,,,0.00,Wunderground v.1.15,2013-04-22 02:52:00,
2013-04-21 21:58:00,64.6,54.6,30.07,SE,124,3.0,11.0,70,0.00,,,0.00,Wunderground v.1.15,2013-04-22 02:58:00,
2013-04-21 22:04:00,64.6,55.0,30.07,SE,130,5.0,11.0,71,0.00,,,0.00,Wunderground v.1.15,2013-04-22 03:04:00,
2013-04-21 22:10:00,64.5,54.9,30.08,SE,146,6.0,11.0,71,0.00,,,0.00,Wunderground v.1.15,2013-04-22 03:10:00,
2013-04-21 22:18:00,64.1,55.3,30.08,SE,136,5.0,11.0,73,0.00,,,0.00,Wunderground v.1.15,2013-04-22 03:18:00,
2013-04-21 22:24:00,63.9,55.1,30.08,SE,138,5.0,11.0,73,0.00,,,0.00,Wunderground v.1.15,2013-04-22 03:24:00,
2013-04-21 22:30:00,63.6,55.2,30.09,SE,146,5.0,11.0,74,0.00,,,0.00,Wunderground v.1.15,2013-04-22 03:30:00,
2013-04-21 22:36:00,63.4,55.3,30.09,SE,130,5.0,11.0,75,0.00,,,0.00,Wunderground v.1.15,2013-04-22 03:36:00,
2013-04-21 22:42:00,63.2,55.5,30.09,ESE,115,6.0,7.0,76,0.00,,,0.00,Wunderground v.1.15,2013-04-22 03:42:00,
2013-04-21 22:48:00,63.1,55.8,30.09,ESE,102,7.0,11.0,77,0.00,,,0.00,Wunderground v.1.15,2013-04-22 03:48:00,
2013-04-21 22:54:00,62.9,55.9,30.09,SE,134,7.0,11.0,78,0.00,,,0.00,Wunderground v.1.15,2013-04-22 03:54:00,
2013-04-21 23:00:00,62.8,56.2,30.09,SSE,150,8.0,8.0,79,0.00,,,0.00,Wunderground v.1.15,2013-04-22 04:00:00,
2013-04-21 23:02:00,62.7,56.1,30.09,SE,139,8.0,13.0,79,0.00,,,0.00,Wunderground v.1.15,2013-04-22 04:02:00,
2013-04-21 23:06:00,62.5,55.9,30.09,ESE,108,8.0,13.0,79,0.00,,,0.00,Wunderground v.1.15,2013-04-22 04:06:00,
2013-04-21 23:08:00,62.5,56.2,30.09,SE,139,7.0,13.0,80,0.00,,,0.00,Wunderground v.1.15,2013-04-22 04:08:00,
2013-04-21 23:12:00,62.4,56.1,30.09,SE,134,7.0,11.0,80,0.00,,,0.00,Wunderground v.1.15,2013-04-22 04:12:00,
2013-04-21 23:18:00,62.1,56.2,30.09,SE,136,7.0,11.0,81,0.00,,,0.00,Wunderground v.1.15,2013-04-22 04:18:00,
2013-04-21 23:24:00,62.0,56.4,30.09,SE,130,8.0,11.0,82,0.00,,,0.00,Wunderground v.1.15,2013-04-22 04:24:00,
2013-04-21 23:26:00,61.9,56.3,30.09,SSE,167,8.0,11.0,82,0.00,,,0.00,Wunderground v.1.15,2013-04-22 04:26:00,
2013-04-21 23:32:00,61.8,56.6,30.09,SE,134,7.0,13.0,83,0.00,,,0.00,Wunderground v.1.15,2013-04-22 04:32:00,
2013-04-21 23:38:00,61.9,56.7,30.08,SE,146,8.0,13.0,83,0.00,,,0.00,Wunderground v.1.15,2013-04-22 04:38:00,
2013-04-21 23:44:00,61.9,56.7,30.08,SE,141,8.0,11.0,83,0.00,,,0.00,Wunderground v.1.15,2013-04-22 04:44:00,
2013-04-21 23:50:00,61.8,56.6,30.08,ESE,123,8.0,8.0,83,0.00,,,0.00,Wunderground v.1.15,2013-04-22 04:50:00,
2013-04-21 23:56:00,61.7,56.8,30.08,SE,136,8.0,11.0,84,0.00,,,0.00,Wunderground v.1.15,2013-04-22 04:56:00,